User: anonymous   Login
Location: Melara
(45.0500°N, 11.1833°E)
Time: 17:10:05
(UTC+00:00)
Language:

QB50P2 - Orbit

View from above orbital plane
View from above orbital plane
View from above satellite
View from above satellite

Ground track
Ground track

The orbit data is extracted from the following two-line orbital elements,

1 40032U 14033Y   24148.81724328  .00006370  00000-0  54156-3 0  9994
2 40032  98.0067 100.7362 0008215 209.0006 151.0760 14.98188843540141
Epoch (UTC): 27 May 2024 19:36:49
Eccentricity: 0.0008215
inclination: 98.0067°
perigee height: 567 km
apogee height: 578 km
right ascension of ascending node: 100.7362°
argument of perigee: 209.0006°
revolutions per day: 14.98188843
mean anomaly at epoch: 151.0760°
orbit number at epoch: 54014

The dashed part of the orbit path shows where the satellite is in the earth's shadow,  

DLR